www.pogodaiklimat.ru

Погода и климат >> Архив погоды >> Самоа >> Faleolo Int East


ПОГОДА в Faleolo Int East

  • Прогноз погоды в Faleolo Int East
  • Монитор погоды в Faleolo Int East
  • Климат города

АРХИВ ПОГОДЫ в Faleolo Int East

Время (UTC), дата Ветер
(напр.,м/с)
 
Видим.   Явления Облачность Т
(С)
Тd
(С)
f
(%)
Тe
(С)
Тes
(С)
Комфортность P
(гПа)
Po
(гПа)
Тmin
(С)
Tmax
(С)
R
(мм)
R24
(мм)
S
(см)
09 13.09 0 16 км н/о +26.0 +23.6 87 1014.2 1013.1
12 13.09 0 16 км н/о +25.7 +23.5 88 1013.4 1012.3 +34.4
15 13.09 0 7000 м н/о +24.7 +23.8 95 1012.7 1011.6
18 13.09 0 12 км н/о +26.0 +22.4 81 1014.0 1012.9
21 13.09 0 15 км н/о +28.7 +23.8 75 1015.2 1014.1
00 14.09 0 16 км н/о +31.6 +23.0 60 1013.0 1011.9 +20.7
03 14.09 0 16 км н/о +29.9 +22.5 65 1011.7 1010.6
06 14.09 0 12 км н/о +26.3 +22.3 79 1012.5 1011.4
09 14.09 0 16 км н/о +25.4 +23.8 91 1013.7 1012.6
12 14.09 0 15 км н/о +25.2 +24.0 93 1012.5 1011.4 +32.2
15 14.09 0 12 км н/о +24.0 +23.3 96 1011.2 1010.1
18 14.09 0 16 км н/о +25.9 +23.5 87 1012.6 1011.5
21 14.09 0 14 км н/о +29.5 +25.0 77 1013.2 1012.1
00 15.09 0 16 км н/о +34.3 +23.2 53 1011.5 1010.4 +24.4
03 15.09 0 15 км н/о +31.9 +22.2 57 1010.5 1009.4
06 15.09 0 15 км н/о +27.7 +23.7 79 1012.1 1011.0
09 15.09 0 15 км н/о +26.5 +23.3 83 1013.0 1011.9
12 15.09 0 16 км н/о +26.2 +22.8 82 1012.2 1011.1 +33.3
15 15.09 0 10 км н/о +25.5 +23.1 87 1010.9 1009.8
18 15.09 0 15 км н/о +26.3 +23.5 85 1011.6 1010.5
21 15.09 0 14 км н/о +30.1 +25.3 76 1013.2 1012.1
00 16.09 0 15 км н/о +30.5 +23.1 65 1011.3 1010.2 +24.0
03 16.09 0 15 км н/о +31.0 +23.0 62 1009.9 1008.8
06 16.09 0 14 км н/о +27.7 +22.3 72 1011.5 1010.4
09 16.09 0 15 км н/о +25.9 +22.7 83 1013.3 1012.2
12 16.09 0 15 км н/о +25.1 +22.4 85 1012.6 1011.5 +34.6
15 16.09 0 16 км н/о +24.7 +22.0 85 1011.8 1010.7
18 16.09 0 16 км н/о +25.2 +22.1 83 1013.0 1011.9
21 16.09 0 14 км н/о +30.7 +22.5 62 1013.3 1012.2
00 17.09 0 14 км н/о +32.6 +22.8 56 1011.7 1010.6 +24.8
03 17.09 0 15 км н/о +32.7 +23.2 57 1010.1 1009.0
06 17.09 0 16 км н/о +27.3 +22.4 75 1011.8 1010.7
09 17.09 0 16 км н/о +25.0 +21.3 80 1012.4 1011.3
12 17.09 0 16 км н/о +25.4 +22.1 82 1011.8 1010.7 +32.9
15 17.09 0 15 км н/о +22.1 +21.6 97 1010.8 1009.7
18 17.09 0 15 км н/о +22.8 +21.9 95 1011.9 1010.8
21 17.09 0 16 км н/о +32.7 +23.8 60 1012.6 1011.5
00 18.09 0 16 км н/о +33.2 +23.7 58 1010.5 1009.4 +24.0
03 18.09 0 16 км н/о +32.1 +23.2 59 1009.5 1008.4
06 18.09 0 15 км н/о +27.3 +23.1 78 1010.9 1009.8
09 18.09 0 16 км н/о +25.9 +23.1 85 1012.2 1011.1
12 18.09 0 16 км н/о +24.9 +23.3 91 1010.7 1009.6 +33.4
15 18.09 0 16 км н/о +25.5 +23.5 89 1009.4 1008.3
18 18.09 0 16 км н/о +24.3 +23.4 95 1010.9 1009.8
21 18.09 0 15 км н/о +32.5 +24.7 64 1011.6 1010.5
00 19.09 0 15 км н/о +34.7 +25.7 60 1009.6 1008.5 +21.9
03 19.09 0 15 км н/о +29.7 +25.2 77 1008.8 1007.7
06 19.09 0 16 км н/о +26.0 +24.9 94 1010.2 1009.1
09 19.09 0 16 км н/о +25.6 +24.7 95 1010.9 1009.8
12 19.09 0 16 км н/о +25.4 +24.7 96 1010.9 1009.8 +34.6
15 19.09 0 16 км н/о +24.4 +23.9 97 1009.6 1008.5
18 19.09 0 10 км н/о +23.8 +23.5 98 1012.0 1010.9
21 19.09 0 16 км н/о +25.4 +24.5 95 1012.0 1010.9
00 20.09 0 16 км н/о +29.8 +24.4 73 1008.4 1007.3 +23.6

 

Местоположение метеостанции Faleolo Int East (Самоа): широта -13.83 долгота -171.99 высота над уровнем моря 10 м.

В архиве по умолчанию представлена погода в Faleolo Int East за последнюю неделю. Архивные данные за месяц целиком и за предыдущие месяцы, начиная с января 2011 года, Вы можете получить, выбрав интересующий диапазон дат из раскрывающегося списка и нажав кнопку "Ввод!".


*Определитесь, кто Вы:
робот инопланетянин человек

Внимание! Время в таблицах - всемирное. Для получения местного времени необходимо прибавить поправку, которая в Faleolo Int East равна 13 ч.

Смотрите также архив погоды в соседних городах и на ближайших метеорологических станциях:

Погода в Faleolo Int Airport (Американское Самоа) (2 км)
Погода в Faleolo Int Airport (Самоа) (3 км)
Погода в Manono (Самоа) (13 км)
Погода в Maota Int Airport (Самоа) (31 км)
Погода в Apia (Американское Самоа) (32 км)
Погода в Togitogiga (Самоа) (33 км)
Погода в Le Mafa (Самоа) (45 км)
Погода в Lufi-Lufi (Самоа) (47 км)
Погода в Le Piu Tai (Самоа) (60 км)
Погода в Mount Talu (Самоа) (84 км)

Пояснения к столбцам:

Ветер - указаны скорость ветра в м/с - средняя за 10 мин, порывы в срок и между сроками (в фигурных скобках) и направление, откуда дует ветер: С - северный, СВ - северо-восточный, В - восточный, ЮВ - юго-восточный, Ю - южный, ЮЗ - юго-западный, З - западный, СЗ - северо-западный.
Видимость - горизонтальная дальность видимости в метрах или километрах. При видимости от 1 до 10 км при отсутствии осадков обычно наблюдается дымка, при ухудшении видимости до 1 км и менее - туман. В сухую погоду видимость может ухудшаться дымом, пылью или мглою.
Явления - указаны атмосферные явления, наблюдавшиеся в срок или в последний час перед сроком; фигурными скобками обозначены явления, наблюдавшиеся между сроками (за 1-3 часа до срока); квадратными скобками обозначены град или гололедные отложения с указанием их диаметра в мм.
Облачность - указаны через наклонную черту общая и нижняя облачность в баллах и высота нижней границы облаков в метрах; квадратными скобками обозначены формы облаков: Ci - перистые, Cs - перисто-слоистые, Cc - перисто-кучевые, Ac - высококучевые, As - высокослоистые, Sc - слоисто-кучевые, Ns - слоисто-дождевые, Cu - кучевые, Cb - кучево-дождевые. Подробнее классификацию облаков см. в Атласе облаков (PDF).
T - Температура воздуха - температура, измеренная на высоте 2 м над землей.
Td - Температура точки росы - температура, при понижении до которой содержащийся в воздухе водяной пар достигнет насыщения.
f - Относительная влажность воздуха - влажноcть воздуха, измеренная на высоте 2 м над землей.
Te - Эффективная температура - температура, которую ощущает одетый по сезону человек в тени. Характеристика душности погоды. При расчете учитывается влияние влажности воздуха и скорости ветра на теплоощущения человека.
Tes - Эффективная температура на солнце - температура, которую ощущает человек, с поправкой на солнечный нагрев. Характеристика знойности погоды. Зависит от высоты солнца над горизонтом, облачности и скорости ветра. Ночью, в пасмурную погоду, а также при ветре 12 м/с и более поправка равна нулю.
P - Атмосферное давление - приведенное к уровню моря атмосферное давление.
Po - Атмосферное давление - измеренное на уровне метеостанции атмосферное давление.
Tmin - Минимальная температура - минимум температуры воздуха на высоте 2 м над землей.
Tmax - Максимальная температура - максимум температуры воздуха на высоте 2 м над землей.
R - Количество осадков - Количество выпавших осадков за период времени, мм. При наведении курсора мыши на число - период времени, за который выпало указанное количество осадков.
R24 - Количество осадков - Количество выпавших осадков за 24 часа, мм.
S - Снежный покров - Высота снежного покрова, см. При наведении курсора мыши на число - состояние снежного покрова и степень покрытия местности в баллах.